Flag Weather past 2 weeks in El Paso, Texas, U.S.A.

Now
36 °F

Scattered clouds.


Feels Like: 29 °F
Forecast: 36 / 54 °F
Wind: 9 mph from Northeast

Location: El Paso International Airport

Current Time: Nov 24, 2014 at 7:09:58 AM

Latest Report: Nov 24, 2014 at 6:51 AM


Visibility: 10 mi

Pressure: 30.07 "Hg

Humidity: 25%

Dew point: 3 °F

Location of El PasoLocation

Historic Weather in El Paso — Graph

°F

El Paso temperature yesterday

Maximum temperature yesterday: 64 °F (at 1:51 PM)
Minimum temperature yesterday: 48 °F (at 6:51 AM)
Average temperature yesterday: 56 °F

Past Weeks' High & Low Weather Summary

 TemperatureHumidityPressure
High77 °F (Nov 10, 1:51 PM)83% (Nov 16, 1:51 PM)30.36 "Hg (Nov 16, 1:51 PM)
Low27 °F (Nov 17, 6:51 AM)10% (Nov 23, 6:51 PM)29.65 "Hg (Nov 10, 3:51 PM)
Average52 °F40%29.98 "Hg
* Reported Nov 9 5:51 AM — Nov 24 5:51 AM, El Paso, Weather by CustomWeather, © 2014

Note: Actual official high and low records may vary slightly from our data, if they occured in-between our weather recording intervals... More about our weather records

Advertising

El Paso weather history for previous 24 hours

 ConditionsComfort  
Time TempWeatherWind HumidityBarometerVisibility
5:51 AM
Nov 24
42 °FPassing clouds.9 mph18%30.03 "Hg10 mi
4:51 AM41 °FPassing clouds.6 mph19%30.03 "Hg10 mi
3:51 AM42 °FPassing clouds.8 mph19%30.02 "Hg10 mi
2:51 AM42 °FPassing clouds.No wind18%30.03 "Hg10 mi
1:51 AM44 °FPassing clouds.7 mph16%30.00 "Hg10 mi
12:51 AM43 °FPassing clouds.9 mph16%29.99 "Hg10 mi
11:51 PM
Nov 23
48 °FPassing clouds.15 mph12%29.95 "Hg10 mi
10:51 PM50 °FPassing clouds.22 mph12%29.94 "Hg10 mi
9:51 PM51 °FPassing clouds.17 mph11%29.92 "Hg10 mi
8:51 PM51 °FPassing clouds.18 mph13%29.90 "Hg10 mi
7:51 PM53 °FPassing clouds.13 mph11%29.88 "Hg10 mi
6:51 PM56 °FPassing clouds.17 mph10%29.86 "Hg10 mi
5:51 PM60 °FPassing clouds.26 mph20%29.78 "Hg10 mi
4:51 PM61 °FPassing clouds.38 mph19%29.73 "Hg10 mi
3:51 PM63 °FPassing clouds.37 mph20%29.69 "Hg10 mi
2:51 PM63 °FPassing clouds.41 mph21%29.66 "Hg10 mi
1:51 PM64 °FPassing clouds.38 mph23%29.67 "Hg8 mi
12:51 PM63 °FScattered clouds.39 mph25%29.68 "Hg10 mi
11:51 AM63 °FScattered clouds.28 mph25%29.73 "Hg10 mi
10:51 AM62 °FScattered clouds.28 mph24%29.77 "Hg10 mi
9:51 AM60 °FBroken clouds.32 mph25%29.77 "Hg10 mi
8:51 AM58 °FScattered clouds.21 mph26%29.78 "Hg10 mi
7:51 AM56 °FPartly sunny.26 mph28%29.78 "Hg10 mi
Weather by CustomWeather, © 2014

See weather overviewHow to use our weather pages